Date String (YYYY-MM-DD hh:mm:ss) UTC,Instrument flags,absolute air pressure of the measurement (hPa),sample flow rate (lpm),inlet stack bypass flow (lpm),air temperature of the measurement (°C),ambient temperature measured by the external sensor (°C),aerosol sample conditioner tube jacket temperature (°C),OPC LED temperature (°C),internal box temperature (°C),relative humidity of the measurement (%),span deviation,mass concentration of particles derived from Lorenz-Mie calculation of OPC scattering (μg/m³),mass concentration of particles derived from Lorenz-Mie calculation of OPC scattering (μg/m³),mass concentration of particles derived from Lorenz-Mie calculation of OPC scattering (μg/m³)
DateTimeUTC,F1_M11,P_M11,Q1_M11,Q2_M11,T1_M11,T2_M11,T3_M11,T4_M11,T5_M11,U1_M11,ZSPAN_M11,X0_M11,X2_M11,X1_M11
2023-12-20 07:00:00,SystemResetWarning,0827.0,5.00,000.00,024.8,023.9,000.0,033.1,026.3,12.2,0000.0,0002.07,0000.66,0000.58
2023-12-20 07:01:00,SystemResetWarning,0827.0,5.01,000.00,024.9,023.9,000.0,033.1,026.3,12.2,0000.0,0002.08,0000.67,0000.58
2023-12-20 07:02:00,SystemResetWarning,0826.9,5.00,000.00,024.9,023.9,000.0,033.2,026.3,12.2,0000.0,0002.10,0000.68,0000.58
2023-12-20 07:03:00,SystemResetWarning,0826.9,4.99,000.00,024.9,024.0,000.0,033.2,026.3,12.2,0000.0,0002.23,0000.72,0000.59
2023-12-20 07:04:00,SystemResetWarning,0826.9,4.99,000.00,024.9,024.0,000.0,033.2,026.3,12.1,0000.0,0001.97,0000.74,0000.59
2023-12-20 07:05:00,SystemResetWarning,0826.9,5.00,000.00,024.9,024.0,000.0,033.2,026.3,12.1,0000.0,0001.43,0000.74,0000.59
2023-12-20 07:06:00,SystemResetWarning,0826.9,5.02,000.00,024.9,024.0,000.0,033.2,026.3,12.2,0000.0,0001.40,0000.73,0000.60
2023-12-20 07:07:00,SystemResetWarning,0826.9,4.98,000.00,024.9,023.9,000.0,033.2,026.3,12.2,0000.0,0001.43,0000.75,0000.60
2023-12-20 07:08:00,SystemResetWarning,0826.9,4.99,000.00,024.9,023.9,000.0,033.2,026.3,12.3,0000.0,0001.40,0000.74,0000.59
2023-12-20 07:09:00,SystemResetWarning,0826.9,5.01,000.00,024.9,023.9,000.0,033.2,026.3,12.2,0000.0,0001.38,0000.74,0000.59
2023-12-20 07:10:00,SystemResetWarning,0826.9,5.01,000.00,024.9,023.9,000.0,033.2,026.3,12.2,0000.0,0001.44,0000.75,0000.59
2023-12-20 07:11:00,SystemResetWarning,0826.9,4.99,000.00,024.9,023.9,000.0,033.2,026.3,12.3,0000.0,0001.49,0000.76,0000.58
2023-12-20 07:12:00,SystemResetWarning,0826.9,4.99,000.00,024.9,023.9,000.0,033.2,026.3,12.4,0000.0,0001.49,0000.77,0000.59
2023-12-20 07:13:00,SystemResetWarning,0826.9,5.01,000.00,024.9,023.9,000.0,033.2,026.3,12.4,0000.0,0001.48,0000.77,0000.59
2023-12-20 07:14:00,SystemResetWarning,0826.9,5.01,000.00,024.9,023.9,000.0,033.2,026.3,12.3,0000.0,0001.35,0000.73,0000.58
2023-12-20 07:15:00,SystemResetWarning,0826.9,5.00,000.00,024.9,023.9,000.0,033.2,026.3,12.4,0000.0,0001.31,0000.72,0000.59
2023-12-20 07:16:00,SystemResetWarning,0826.9,4.99,000.00,024.9,023.9,000.0,033.2,026.3,12.6,0000.0,0000.97,0000.71,0000.59
2023-12-20 07:17:00,SystemResetWarning,0827.0,5.00,000.00,024.9,023.9,000.0,033.2,026.3,12.6,0000.0,0001.06,0000.71,0000.58
2023-12-20 07:18:00,SystemResetWarning,0826.9,4.99,000.00,024.9,024.0,000.0,033.2,026.3,12.5,0000.0,0001.16,0000.72,0000.58
2023-12-20 07:19:00,SystemResetWarning,0826.9,5.00,000.00,024.9,024.0,000.0,033.2,026.3,12.4,0000.0,0001.15,0000.70,0000.58
2023-12-20 07:20:00,SystemResetWarning,0827.0,5.00,000.00,024.9,024.0,000.0,033.2,026.3,12.1,0000.0,0001.15,0000.70,0000.58
2023-12-20 07:21:00,SystemResetWarning,0826.9,5.00,000.00,024.9,024.0,000.0,033.2,026.3,12.1,0000.0,0001.12,0000.70,0000.58
2023-12-20 07:22:00,SystemResetWarning,0826.9,5.00,000.00,024.9,024.0,000.0,033.2,026.3,12.2,0000.0,0001.10,0000.70,0000.59
2023-12-20 07:23:00,SystemResetWarning,0826.9,5.00,000.00,024.9,024.0,000.0,033.2,026.2,12.1,0000.0,0001.13,0000.71,0000.59
2023-12-20 07:24:00,SystemResetWarning,0826.9,5.00,000.00,024.8,024.0,000.0,033.2,026.2,12.1,0000.0,0001.15,0000.72,0000.59
2023-12-20 07:25:00,SystemResetWarning,0826.9,4.99,000.00,024.8,023.9,000.0,033.2,026.2,12.0,0000.0,0001.18,0000.72,0000.59
2023-12-20 07:26:00,SystemResetWarning,0826.9,5.00,000.00,024.8,023.9,000.0,033.2,026.2,12.0,0000.0,0001.20,0000.72,0000.59
2023-12-20 07:27:00,SystemResetWarning,0826.9,5.00,000.00,024.8,023.9,000.0,033.2,026.2,12.0,0000.0,0001.96,0000.75,0000.59
2023-12-20 07:28:00,SystemResetWarning,0826.9,5.01,000.00,024.8,023.8,000.0,033.1,026.2,11.9,0000.0,0002.10,0000.76,0000.60
2023-12-20 07:29:00,SystemResetWarning,0826.9,5.01,000.00,024.8,023.9,000.0,033.1,026.2,11.9,0000.0,0002.04,0000.77,0000.60
2023-12-20 07:30:00,SystemResetWarning,0826.9,4.99,000.00,024.8,023.9,000.0,033.1,026.2,11.9,0000.0,0002.23,0000.80,0000.61
2023-12-20 07:31:00,SystemResetWarning,0826.9,4.99,000.00,024.8,023.9,000.0,033.1,026.2,11.8,0000.0,0002.32,0000.82,0000.61
2023-12-20 07:32:00,SystemResetWarning,0826.9,5.01,000.00,024.8,023.9,000.0,033.1,026.1,11.8,0000.0,0002.30,0000.80,0000.61
2023-12-20 07:33:00,SystemResetWarning,0827.0,5.01,000.00,024.8,023.9,000.0,033.1,026.1,11.9,0000.0,0002.56,0000.77,0000.60
2023-12-20 07:34:00,SystemResetWarning,0827.0,5.00,000.00,024.8,023.9,000.0,033.1,026.1,11.8,0000.0,0002.53,0000.76,0000.59
2023-12-20 07:35:00,SystemResetWarning,0827.0,5.00,000.00,024.7,023.9,000.0,033.1,026.1,11.9,0000.0,0002.51,0000.76,0000.59
2023-12-20 07:36:00,SystemResetWarning,0827.0,5.00,000.00,024.7,023.9,000.0,033.1,026.1,11.9,0000.0,0002.58,0000.76,0000.58
2023-12-20 07:37:00,SystemResetWarning,0826.9,4.99,000.00,024.7,023.9,000.0,033.1,026.0,12.2,0000.0,0002.54,0000.75,0000.58
2023-12-20 07:38:00,SystemResetWarning,0826.9,5.00,000.00,024.7,023.8,000.0,033.1,026.0,12.2,0000.0,0002.00,0000.73,0000.58
2023-12-20 07:39:00,SystemResetWarning,0826.9,5.00,000.00,024.7,023.8,000.0,033.1,026.0,12.3,0000.0,0001.65,0000.72,0000.57
2023-12-20 07:40:00,SystemResetWarning,0826.9,4.99,000.00,024.7,023.8,000.0,033.1,026.0,12.2,0000.0,0001.60,0000.71,0000.56
2023-12-20 07:41:00,SystemResetWarning,0826.9,5.00,000.00,024.7,023.8,000.0,033.1,026.0,12.2,0000.0,0001.44,0000.71,0000.55
2023-12-20 07:42:00,SystemResetWarning,0826.9,5.01,000.00,024.7,023.8,000.0,033.1,026.1,12.2,0000.0,0001.38,0000.69,0000.56
2023-12-20 07:43:00,SystemResetWarning,0826.9,5.00,000.00,024.7,023.8,000.0,033.1,026.1,12.1,0000.0,0001.45,0000.73,0000.56
2023-12-20 07:44:00,SystemResetWarning,0826.9,5.00,000.00,024.7,023.7,000.0,033.1,026.1,11.9,0000.0,0001.19,0000.75,0000.56
2023-12-20 07:45:00,SystemResetWarning,0826.9,5.00,000.00,024.7,023.7,000.0,033.0,026.1,11.8,0000.0,0001.31,0000.78,0000.56
2023-12-20 07:46:00,SystemResetWarning,0826.9,5.00,000.00,024.7,023.7,000.0,033.0,026.0,12.2,0000.0,0001.44,0000.82,0000.57
2023-12-20 07:47:00,SystemResetWarning,0826.9,5.00,000.00,024.7,023.7,000.0,033.0,026.1,12.2,0000.0,0001.49,0000.85,0000.59
2023-12-20 07:48:00,SystemResetWarning,0826.9,5.00,000.00,024.7,023.7,000.0,033.0,026.1,12.3,0000.0,0001.49,0000.86,0000.59
2023-12-20 07:49:00,SystemResetWarning,0826.9,4.98,000.00,024.7,023.7,000.0,033.0,026.0,12.2,0000.0,0001.56,0000.88,0000.59
2023-12-20 07:50:00,SystemResetWarning,0826.9,5.00,000.00,024.7,023.6,000.0,033.0,026.0,12.4,0000.0,0001.60,0000.90,0000.58
2023-12-20 07:51:00,SystemResetWarning,0826.9,5.00,000.00,024.7,023.6,000.0,033.0,026.0,12.1,0000.0,0001.56,0000.88,0000.59
2023-12-20 07:52:00,SystemResetWarning,0827.0,5.00,000.00,024.6,023.6,000.0,033.0,026.0,12.0,0000.0,0001.51,0000.86,0000.59
2023-12-20 07:53:00,SystemResetWarning,0826.9,5.00,000.00,024.6,023.6,000.0,033.0,026.0,12.1,0000.0,0001.54,0000.88,0000.60
2023-12-20 07:54:00,SystemResetWarning,0826.9,5.00,000.00,024.6,023.6,000.0,033.0,026.0,12.3,0000.0,0001.58,0000.89,0000.61
2023-12-20 07:55:00,SystemResetWarning,0826.9,5.00,000.00,024.6,023.6,000.0,033.0,026.0,12.3,0000.0,0001.57,0000.89,0000.62
2023-12-20 07:56:00,SystemResetWarning,0826.9,5.01,000.00,024.6,023.6,000.0,033.0,026.0,12.5,0000.0,0001.56,0000.91,0000.62
2023-12-20 07:57:00,SystemResetWarning,0826.9,5.00,000.00,024.6,023.6,000.0,033.0,025.9,12.4,0000.0,0001.42,0000.87,0000.63
2023-12-20 07:58:00,SystemResetWarning,0826.9,4.99,000.00,024.6,023.6,000.0,033.0,025.9,12.2,0000.0,0001.49,0000.85,0000.63
2023-12-20 07:59:00,SystemResetWarning,0826.9,4.99,000.00,024.6,023.6,000.0,033.0,025.9,12.0,0000.0,0002.11,0000.87,0000.62
